| time (UTC) | temp C | wind direction | speed KPH | gust KPH | rain 1hr cm | rain 24hr cm | rain mn cm | humidity % | barometer mb |
| 20260506174004 | 6 | 283 | 4.8 | 14.5 | 0.00 | 0.00 | 0.00 | 46 | 1012.5 |
| 20260506172005 | 6 | 297 | 9.7 | 20.9 | 0.00 | 0.00 | 0.00 | 48 | 1012.7 |
| 20260506170004 | 6 | 341 | 4.8 | 19.3 | 0.00 | 0.00 | 0.00 | 50 | 1012.9 |
| 20260506164004 | 6 | 295 | 8.0 | 22.5 | 0.00 | 0.00 | 0.00 | 49 | 1013.2 |
| 20260506163004 | 6 | 264 | 9.7 | 24.1 | 0.00 | 0.00 | 0.00 | 49 | 1013.1 |
| 20260506162004 | 5 | 283 | 9.7 | 22.5 | 0.00 | 0.00 | 0.00 | 51 | 1013.2 |
| 20260506161004 | 5 | 248 | 8.0 | 14.5 | 0.00 | 0.00 | 0.00 | 52 | 1013.3 |
| 20260506160004 | 6 | 330 | 8.0 | 14.5 | 0.00 | 0.00 | 0.00 | 53 | 1013.1 |
| 20260506155004 | 5 | 228 | 1.6 | 11.3 | 0.00 | 0.00 | 0.00 | 54 | 1013.2 |
| 20260506154003 | 5 | 286 | 8.0 | 14.5 | 0.00 | 0.00 | 0.00 | 55 | 1013.1 |
| 20260506153004 | 5 | 314 | 4.8 | 20.9 | 0.00 | 0.00 | 0.00 | 55 | 1013.2 |
| 20260506152004 | 5 | 357 | 3.2 | 11.3 | 0.00 | 0.00 | 0.00 | 54 | 1013.1 |
| 20260506151004 | 5 | 315 | 9.7 | 14.5 | 0.00 | 0.00 | 0.00 | 55 | 1013.2 |
| 20260506150005 | 5 | 257 | 4.8 | 14.5 | 0.00 | 0.00 | 0.00 | 55 | 1013.1 |
| 20260506145004 | 4 | 37 | 4.8 | 9.7 | 0.00 | 0.00 | 0.00 | 56 | 1013.1 |
| 20260506144004 | 5 | 41 | 3.2 | 20.9 | 0.00 | 0.00 | 0.00 | 56 | 1012.9 |
| 20260506143005 | 4 | 358 | 3.2 | 19.3 | 0.00 | 0.00 | 0.00 | 57 | 1013.0 |
| 20260506142004 | 4 | 269 | 6.4 | 14.5 | 0.00 | 0.00 | 0.00 | 56 | 1013.1 |
| 20260506141003 | 5 | 11 | 3.2 | 9.7 | 0.00 | 0.00 | 0.00 | 58 | 1012.9 |
| 20260506140004 | 4 | 295 | 6.4 | 11.3 | 0.00 | 0.00 | 0.00 | 58 | 1012.9 |
| 20260506135004 | 4 | 0 | 3.2 | 12.9 | 0.00 | 0.00 | 0.00 | 59 | 1012.8 |
| 20260506134004 | 4 | 335 | 3.2 | 8.0 | 0.00 | 0.00 | 0.00 | 58 | 1012.8 |
| 20260506133004 | 3 | 54 | 1.6 | 11.3 | 0.00 | 0.00 | 0.00 | 60 | 1012.9 |
| 20260506132004 | 3 | 310 | 3.2 | 11.3 | 0.00 | 0.00 | 0.00 | 61 | 1012.9 |
| 20260506131004 | 3 | 15 | 3.2 | 9.7 | 0.00 | 0.00 | 0.00 | 63 | 1013.0 |
| 20260506130004 | 2 | 353 | 3.2 | 11.3 | 0.00 | 0.00 | 0.00 | 64 | 1013.1 |
| 20260506125004 | 2 | 3 | 3.2 | 9.7 | 0.00 | 0.00 | 0.00 | 65 | 1013.0 |
| 20260506122004 | 2 | 27 | 3.2 | 4.8 | 0.00 | 0.00 | 0.00 | 67 | 1012.7 |
| 20260506121004 | 2 | 56 | 3.2 | 8.0 | 0.00 | 0.00 | 0.00 | 69 | 1012.4 |
| 20260506120004 | 1 | 339 | 1.6 | 3.2 | 0.00 | 0.00 | 0.00 | 71 | 1012.4 |
| 20260506115003 | 1 | 319 | 1.6 | 4.8 | 0.00 | 0.00 | 0.00 | 72 | 1012.4 |
| 20260506114003 | 1 | 347 | 3.2 | 4.8 | 0.00 | 0.00 | 0.00 | 73 | 1012.3 |
| 20260506113003 | 1 | 333 | 3.2 | 4.8 | 0.00 | 0.00 | 0.00 | 74 | 1012.4 |
| 20260506112004 | 0 | 308 | 1.6 | 3.2 | 0.00 | 0.00 | 0.00 | 74 | 1012.2 |
| 20260506111004 | 0 | 324 | 0.0 | 1.6 | 0.00 | 0.00 | 0.00 | 77 | 1011.9 |
| 20260506105003 | 0 | 313 | 0.0 | 3.2 | 0.00 | 0.00 | 0.00 | 76 | 1011.9 |
| 20260506104003 | 0 | 311 | 0.0 | 3.2 | 0.00 | 0.00 | 0.00 | 74 | 1011.6 |
| 20260506103004 | 0 | 331 | 0.0 | 1.6 | 0.00 | 0.00 | 0.00 | 76 | 1011.6 |
| 20260506101004 | 0 | 44 | 0.0 | 1.6 | 0.00 | 0.00 | 0.00 | 76 | 1011.7 |
| 20260506100004 | 0 | 324 | 0.0 | 1.6 | 0.00 | 0.00 | 0.00 | 76 | 1011.6 |
| 20260506095004 | 0 | 29 | 0.0 | 1.6 | 0.00 | 0.00 | 0.00 | 77 | 1011.7 |
| 20260506093004 | 0 | 290 | 0.0 | 1.6 | 0.00 | 0.00 | 0.00 | 77 | 1011.7 |
| 20260506091004 | 0 | 5 | 0.0 | 0.0 | 0.00 | 0.00 | 0.00 | 76 | 1011.5 |
| 20260506090003 | 0 | 341 | 0.0 | 3.2 | 0.00 | 0.00 | 0.00 | 75 | 1011.5 |
| 20260506085003 | 0 | 43 | 0.0 | 1.6 | 0.00 | 0.00 | 0.00 | 74 | 1011.1 |
| 20260506084003 | 0 | 339 | 0.0 | 3.2 | 0.00 | 0.00 | 0.00 | 75 | 1011.4 |
| 20260506083004 | 0 | 339 | 0.0 | 3.2 | 0.00 | 0.00 | 0.00 | 73 | 1011.3 |
| 20260506081004 | 0 | 309 | 0.0 | 1.6 | 0.00 | 0.00 | 0.00 | 73 | 1011.2 |
| 20260506072004 | 0 | 317 | 0.0 | 1.6 | 0.00 | 0.00 | 0.00 | 75 | 1011.3 |
| 20260506071003 | 0 | 319 | 0.0 | 1.6 | 0.00 | 0.00 | 0.00 | 74 | 1011.3 |
| 20260506062004 | 1 | 330 | 0.0 | 1.6 | 0.00 | 0.00 | 0.00 | 71 | 1011.3 |
| 20260506061003 | 1 | 5 | 0.0 | 1.6 | 0.00 | 0.00 | 0.00 | 71 | 1011.3 |
| 20260506051003 | 1 | 26 | 1.6 | 1.6 | 0.00 | 0.00 | 0.00 | 69 | 1011.4 |
| 20260506045004 | 0 | 355 | 0.0 | 1.6 | 0.00 | 0.00 | 0.00 | 68 | 1011.1 |
| 20260506044004 | 0 | 315 | 0.0 | 1.6 | 0.00 | 0.00 | 0.00 | 70 | 1011.1 |
| 20260506043004 | 0 | 323 | 0.0 | 1.6 | 0.00 | 0.00 | 0.00 | 69 | 1011.0 |
| 20260506041003 | 0 | 351 | 0.0 | 1.6 | 0.00 | 0.00 | 0.00 | 68 | 1011.1 |
| 20260506040003 | 0 | 61 | 0.0 | 1.6 | 0.00 | 0.00 | 0.00 | 68 | 1010.9 |
| 20260506034004 | -1 | 17 | 0.0 | 1.6 | 0.00 | 0.00 | 0.00 | 72 | 1010.8 |
| 20260506033004 | 0 | 1 | 1.6 | 3.2 | 0.00 | 0.00 | 0.00 | 73 | 1010.7 |
| 20260506031003 | 0 | 337 | 1.6 | 1.6 | 0.00 | 0.00 | 0.00 | 68 | 1010.5 |
| 20260506030003 | 0 | 354 | 0.0 | 1.6 | 0.00 | 0.00 | 0.00 | 66 | 1010.4 |
| 20260506025004 | 0 | 326 | 0.0 | 1.6 | 0.00 | 0.00 | 0.00 | 66 | 1010.4 |
| 20260506024003 | 1 | 20 | 1.6 | 3.2 | 0.00 | 0.00 | 0.00 | 63 | 1010.3 |
| 20260506023004 | 1 | 355 | 1.6 | 1.6 | 0.00 | 0.00 | 0.00 | 62 | 1010.2 |
| 20260506022003 | 1 | 313 | 0.0 | 1.6 | 0.00 | 0.00 | 0.00 | 59 | 1010.1 |
| 20260506021004 | 2 | 13 | 1.6 | 1.6 | 0.00 | 0.00 | 0.00 | 59 | 1010.0 |
| 20260506015004 | 3 | 346 | 0.0 | 1.6 | 0.00 | 0.00 | 0.00 | 53 | 1009.9 |
| 20260506014004 | 4 | 22 | 0.0 | 1.6 | 0.00 | 0.00 | 0.00 | 51 | 1009.8 |
| 20260506012003 | 5 | 73 | 1.6 | 9.7 | 0.00 | 0.00 | 0.00 | 45 | 1009.6 |
| 20260506011004 | 6 | 337 | 1.6 | 11.3 | 0.00 | 0.00 | 0.00 | 44 | 1009.6 |
| 20260506010004 | 6 | 332 | 3.2 | 16.1 | 0.00 | 0.00 | 0.00 | 44 | 1009.6 |
| 20260506005004 | 6 | 285 | 4.8 | 19.3 | 0.00 | 0.00 | 0.00 | 43 | 1009.4 |
| 20260506004004 | 6 | 358 | 3.2 | 11.3 | 0.00 | 0.00 | 0.00 | 43 | 1009.4 |
| 20260506003004 | 6 | 300 | 8.0 | 16.1 | 0.00 | 0.00 | 0.00 | 42 | 1009.5 |
| 20260506002004 | 6 | 321 | 8.0 | 12.9 | 0.00 | 0.00 | 0.00 | 42 | 1009.3 |
| 20260506001004 | 7 | 310 | 4.8 | 14.5 | 0.00 | 0.00 | 0.00 | 42 | 1009.1 |
| 20260506000003 | 7 | 337 | 4.8 | 19.3 | 0.00 | 0.00 | 0.00 | 42 | 1009.3 |
| 20260505235004 | 7 | 310 | 9.7 | 19.3 | 0.00 | 0.00 | 0.00 | 41 | 1009.0 |
| 20260505234004 | 7 | 302 | 8.0 | 24.1 | 0.00 | 0.00 | 0.00 | 41 | 1008.8 |
| 20260505233003 | 7 | 327 | 6.4 | 16.1 | 0.00 | 0.00 | 0.00 | 41 | 1008.6 |
| 20260505231004 | 7 | 1 | 4.8 | 20.9 | 0.00 | 0.00 | 0.00 | 41 | 1008.7 |
| 20260505230004 | 8 | 313 | 6.4 | 16.1 | 0.00 | 0.00 | 0.00 | 41 | 1008.5 |
| 20260505225004 | 8 | 40 | 8.0 | 22.5 | 0.00 | 0.00 | 0.00 | 40 | 1008.3 |
| 20260505224004 | 8 | 322 | 8.0 | 22.5 | 0.00 | 0.00 | 0.00 | 39 | 1008.3 |
| 20260505223004 | 8 | 312 | 9.7 | 24.1 | 0.00 | 0.00 | 0.00 | 39 | 1008.2 |
| 20260505222003 | 8 | 311 | 6.4 | 12.9 | 0.00 | 0.00 | 0.00 | 40 | 1008.2 |
| 20260505221004 | 8 | 333 | 9.7 | 20.9 | 0.00 | 0.00 | 0.00 | 40 | 1008.0 |
| 20260505215004 | 8 | 330 | 4.8 | 24.1 | 0.00 | 0.00 | 0.00 | 39 | 1007.8 |
| 20260505214003 | 8 | 299 | 8.0 | 27.4 | 0.00 | 0.00 | 0.00 | 38 | 1007.8 |
| 20260505212004 | 8 | 300 | 11.3 | 25.7 | 0.00 | 0.00 | 0.00 | 37 | 1007.9 |
| 20260505211003 | 8 | 277 | 9.7 | 29.0 | 0.00 | 0.00 | 0.00 | 37 | 1007.6 |
| 20260505210004 | 8 | 316 | 9.7 | 22.5 | 0.00 | 0.00 | 0.00 | 38 | 1007.6 |
| 20260505205004 | 9 | 284 | 8.0 | 32.2 | 0.00 | 0.00 | 0.00 | 37 | 1007.5 |
| 20260505204004 | 9 | 274 | 12.9 | 29.0 | 0.00 | 0.00 | 0.00 | 36 | 1007.5 |
| 20260505203004 | 8 | 342 | 8.0 | 19.3 | 0.00 | 0.00 | 0.00 | 37 | 1007.5 |
| 20260505202004 | 8 | 287 | 6.4 | 25.7 | 0.00 | 0.00 | 0.00 | 37 | 1007.4 |
| 20260505201004 | 8 | 278 | 8.0 | 25.7 | 0.00 | 0.00 | 0.00 | 37 | 1007.4 |
| 20260505200003 | 9 | 257 | 11.3 | 32.2 | 0.00 | 0.00 | 0.00 | 37 | 1007.3 |
| 20260505195004 | 9 | 299 | 6.4 | 22.5 | 0.00 | 0.00 | 0.00 | 37 | 1007.2 |
| 20260505193003 | 9 | 280 | 12.9 | 25.7 | 0.00 | 0.00 | 0.00 | 37 | 1006.9 |
| 20260505192004 | 10 | 284 | 3.2 | 27.4 | 0.00 | 0.00 | 0.00 | 38 | 1006.8 |
| 20260505191004 | 10 | 340 | 8.0 | 22.5 | 0.00 | 0.00 | 0.00 | 36 | 1006.8 |
| 20260505190004 | 10 | 319 | 9.7 | 19.3 | 0.00 | 0.00 | 0.00 | 38 | 1006.6 |
| 20260505185004 | 10 | 286 | 9.7 | 20.9 | 0.00 | 0.00 | 0.00 | 37 | 1006.8 |
| 20260505184003 | 10 | 331 | 8.0 | 22.5 | 0.00 | 0.00 | 0.00 | 36 | 1006.6 |
| 20260505183004 | 11 | 351 | 9.7 | 19.3 | 0.00 | 0.00 | 0.00 | 33 | 1006.3 |
| 20260505182004 | 10 | 299 | 9.7 | 32.2 | 0.00 | 0.00 | 0.00 | 37 | 1006.3 |
| 20260505181004 | 9 | 266 | 4.8 | 22.5 | 0.00 | 0.00 | 0.00 | 39 | 1006.3 |
| 20260505180004 | 10 | 334 | 6.4 | 20.9 | 0.00 | 0.00 | 0.00 | 40 | 1006.0 |
| 20260505175004 | 8 | 265 | 9.7 | 20.9 | 0.00 | 0.00 | 0.00 | 39 | 1006.1 |